{"data":{"norad_id":68617,"intl_designator":"2026-073R","name":"STARLINK-37186","alt_names":[],"object_type":"PAYLOAD","status":"ACTIVE","operator":null,"country":"US","launch_date":"2026-04-07","launch_site_code":"AFWTR","launch_vehicle":null,"mission":null,"orbit_class":"UNKNOWN","rcs_meters":null,"size_class":null,"mass_kg":null,"dimensions":null,"purposes":["comms"],"wikipedia_slug":null,"has_3d_model":false,"image_url":null,"decayed_at":null,"tle_current":{"epoch":"2026-09-20T00:31:20.522784Z","epoch_age_seconds":85299,"freshness":"FRESH","line1":"1 68617U 26073R   26263.02176531  .00011954  00000+0  37188-3 0  9999","line2":"2 68617  97.2857 100.9914 0001123 102.4873 257.6495 15.33457554 25663","mean_motion":15.33457554,"eccentricity":0.0001123,"inclination_deg":97.2857,"raan_deg":100.9914,"arg_perigee_deg":102.4873,"mean_anomaly_deg":257.6495,"bstar":0.00037188,"rev_number":2566,"period_min":93.905435872273,"perigee_km":464.73728177244,"apogee_km":466.27436395046,"semimajor_km":6843.6428228614,"source":"CELESTRAK","updated_at":"2026-09-20T09:00:43.945994Z"}}}